| time (UTC) | temp F | wind direction | speed MPH | gust MPH | rain 1hr in | rain 24hr in | rain mn in | humidity % | barometer mb |
| 20260510191805 | 67 | 249 | 3.0 | 5.0 | 0.00 | 0.00 | 0.00 | 28 | 1007.2 |
| 20260510191305 | 66 | 274 | 2.0 | 6.0 | 0.00 | 0.00 | 0.00 | 30 | 1007.3 |
| 20260510190306 | 66 | 243 | 2.0 | 5.0 | 0.00 | 0.00 | 0.00 | 31 | 1007.4 |
| 20260510185306 | 66 | 259 | 3.0 | 6.0 | 0.00 | 0.00 | 0.00 | 29 | 1007.6 |
| 20260510184805 | 66 | 246 | 3.0 | 5.0 | 0.00 | 0.00 | 0.00 | 29 | 1007.5 |
| 20260510184306 | 66 | 246 | 2.0 | 5.0 | 0.00 | 0.00 | 0.00 | 29 | 1007.6 |
| 20260510183805 | 66 | 246 | 2.0 | 3.0 | 0.00 | 0.00 | 0.00 | 29 | 1007.7 |
| 20260510183305 | 66 | 249 | 2.0 | 5.0 | 0.00 | 0.00 | 0.00 | 29 | 1007.7 |
| 20260510182804 | 65 | 277 | 2.0 | 3.0 | 0.00 | 0.00 | 0.00 | 31 | 1007.7 |
| 20260510182306 | 65 | 245 | 2.0 | 6.0 | 0.00 | 0.00 | 0.00 | 31 | 1007.9 |
| 20260510181806 | 65 | 251 | 2.0 | 5.0 | 0.00 | 0.00 | 0.00 | 32 | 1008.0 |
| 20260510181305 | 65 | 242 | 2.0 | 6.0 | 0.00 | 0.00 | 0.00 | 34 | 1008.0 |
| 20260510180805 | 65 | 244 | 3.0 | 5.0 | 0.00 | 0.00 | 0.00 | 33 | 1008.1 |
| 20260510180305 | 65 | 242 | 2.0 | 3.0 | 0.00 | 0.00 | 0.00 | 33 | 1008.2 |
| 20260510175805 | 65 | 242 | 2.0 | 5.0 | 0.00 | 0.00 | 0.00 | 34 | 1008.2 |
| 20260510175306 | 65 | 263 | 2.0 | 6.0 | 0.00 | 0.00 | 0.00 | 34 | 1008.3 |
| 20260510174805 | 65 | 283 | 2.0 | 5.0 | 0.00 | 0.00 | 0.00 | 34 | 1008.3 |
| 20260510174305 | 65 | 264 | 3.0 | 5.0 | 0.00 | 0.00 | 0.00 | 33 | 1008.2 |
| 20260510173805 | 65 | 287 | 2.0 | 3.0 | 0.00 | 0.00 | 0.00 | 35 | 1008.3 |
| 20260510172806 | 65 | 281 | 2.0 | 3.0 | 0.00 | 0.00 | 0.00 | 34 | 1008.3 |
| 20260510172307 | 65 | 262 | 3.0 | 5.0 | 0.00 | 0.00 | 0.00 | 35 | 1008.3 |
| 20260510171804 | 64 | 282 | 1.0 | 3.0 | 0.00 | 0.00 | 0.00 | 35 | 1008.4 |
| 20260510171304 | 64 | 282 | 2.0 | 5.0 | 0.00 | 0.00 | 0.00 | 36 | 1008.5 |
| 20260510170806 | 64 | 263 | 3.0 | 6.0 | 0.00 | 0.00 | 0.00 | 35 | 1008.6 |
| 20260510165805 | 64 | 274 | 2.0 | 3.0 | 0.00 | 0.00 | 0.00 | 35 | 1008.6 |
| 20260510165306 | 64 | 276 | 2.0 | 3.0 | 0.00 | 0.00 | 0.00 | 37 | 1008.6 |
| 20260510164806 | 64 | 269 | 2.0 | 3.0 | 0.00 | 0.00 | 0.00 | 35 | 1008.6 |
| 20260510164304 | 64 | 285 | 1.0 | 3.0 | 0.00 | 0.00 | 0.00 | 36 | 1008.7 |
| 20260510163804 | 63 | 275 | 2.0 | 3.0 | 0.00 | 0.00 | 0.00 | 36 | 1008.7 |
| 20260510163304 | 63 | 265 | 3.0 | 6.0 | 0.00 | 0.00 | 0.00 | 35 | 1008.7 |
| 20260510162306 | 62 | 287 | 2.0 | 6.0 | 0.00 | 0.00 | 0.00 | 39 | 1008.8 |
| 20260510161805 | 62 | 289 | 2.0 | 3.0 | 0.00 | 0.00 | 0.00 | 40 | 1008.8 |
| 20260510161306 | 62 | 256 | 2.0 | 3.0 | 0.00 | 0.00 | 0.00 | 40 | 1008.8 |
| 20260510160805 | 61 | 259 | 2.0 | 3.0 | 0.00 | 0.00 | 0.00 | 41 | 1009.0 |
| 20260510160305 | 61 | 260 | 2.0 | 3.0 | 0.00 | 0.00 | 0.00 | 43 | 1009.0 |
| 20260510155306 | 60 | 215 | 1.0 | 3.0 | 0.00 | 0.00 | 0.00 | 49 | 1009.1 |
| 20260510154805 | 60 | 215 | 1.0 | 2.0 | 0.00 | 0.00 | 0.00 | 47 | 1009.1 |
| 20260510154304 | 59 | 215 | 0.0 | 2.0 | 0.00 | 0.00 | 0.00 | 46 | 1009.1 |
| 20260510153805 | 59 | 215 | 1.0 | 2.0 | 0.00 | 0.00 | 0.00 | 46 | 1009.1 |
| 20260510153305 | 58 | 215 | 1.0 | 3.0 | 0.00 | 0.00 | 0.00 | 47 | 1009.2 |
| 20260510152307 | 57 | 214 | 0.0 | 0.0 | 0.00 | 0.00 | 0.00 | 51 | 1009.2 |
| 20260510150304 | 54 | 214 | 0.0 | 0.0 | 0.00 | 0.00 | 0.00 | 58 | 1009.2 |
| 20260510145806 | 53 | 214 | 0.0 | 0.0 | 0.00 | 0.00 | 0.00 | 60 | 1009.2 |
| 20260510145306 | 53 | 214 | 0.0 | 0.0 | 0.00 | 0.00 | 0.00 | 60 | 1009.2 |
| 20260510144805 | 52 | 214 | 0.0 | 0.0 | 0.00 | 0.00 | 0.00 | 62 | 1009.2 |
| 20260510144305 | 52 | 214 | 0.0 | 0.0 | 0.00 | 0.00 | 0.00 | 63 | 1009.3 |
| 20260510143806 | 51 | 214 | 0.0 | 0.0 | 0.00 | 0.00 | 0.00 | 65 | 1009.3 |
| 20260510143304 | 51 | 214 | 0.0 | 0.0 | 0.00 | 0.00 | 0.00 | 65 | 1009.3 |
| 20260510142306 | 50 | 214 | 0.0 | 0.0 | 0.00 | 0.00 | 0.00 | 67 | 1009.4 |
| 20260510141806 | 50 | 214 | 0.0 | 0.0 | 0.00 | 0.00 | 0.00 | 67 | 1009.3 |
| 20260510141304 | 49 | 214 | 0.0 | 0.0 | 0.00 | 0.00 | 0.00 | 68 | 1009.4 |
| 20260510140804 | 49 | 214 | 0.0 | 0.0 | 0.00 | 0.00 | 0.00 | 67 | 1009.4 |
| 20260510140305 | 49 | 214 | 0.0 | 0.0 | 0.00 | 0.00 | 0.00 | 67 | 1009.4 |
| 20260510135306 | 49 | 214 | 0.0 | 0.0 | 0.00 | 0.00 | 0.00 | 67 | 1009.4 |
| 20260510134805 | 49 | 214 | 0.0 | 0.0 | 0.00 | 0.00 | 0.00 | 66 | 1009.5 |
| 20260510134304 | 49 | 214 | 0.0 | 0.0 | 0.00 | 0.00 | 0.00 | 66 | 1009.5 |
| 20260510133806 | 48 | 214 | 0.0 | 0.0 | 0.00 | 0.00 | 0.00 | 66 | 1009.5 |
| 20260510133304 | 48 | 214 | 0.0 | 0.0 | 0.00 | 0.00 | 0.00 | 66 | 1009.5 |
| 20260510132804 | 48 | 214 | 0.0 | 0.0 | 0.00 | 0.00 | 0.00 | 66 | 1009.6 |
| 20260510132306 | 48 | 214 | 0.0 | 0.0 | 0.00 | 0.00 | 0.00 | 66 | 1009.5 |
| 20260510131806 | 48 | 214 | 0.0 | 0.0 | 0.00 | 0.00 | 0.00 | 64 | 1009.5 |
| 20260510131304 | 48 | 214 | 0.0 | 0.0 | 0.00 | 0.00 | 0.00 | 65 | 1009.5 |
| 20260510130804 | 48 | 214 | 0.0 | 0.0 | 0.00 | 0.00 | 0.00 | 66 | 1009.5 |
| 20260510130305 | 47 | 214 | 0.0 | 0.0 | 0.00 | 0.00 | 0.00 | 67 | 1009.7 |
| 20260510125307 | 47 | 214 | 0.0 | 0.0 | 0.00 | 0.00 | 0.00 | 67 | 1009.6 |
| 20260510124805 | 47 | 214 | 0.0 | 0.0 | 0.00 | 0.00 | 0.00 | 67 | 1009.7 |
| 20260510124305 | 47 | 214 | 0.0 | 1.0 | 0.00 | 0.00 | 0.00 | 67 | 1009.7 |
| 20260510123804 | 47 | 214 | 0.0 | 1.0 | 0.00 | 0.00 | 0.00 | 67 | 1009.7 |
| 20260510122306 | 47 | 214 | 0.0 | 1.0 | 0.00 | 0.00 | 0.00 | 68 | 1009.6 |
| 20260510121804 | 46 | 214 | 0.0 | 2.0 | 0.00 | 0.00 | 0.00 | 70 | 1009.6 |
| 20260510121305 | 46 | 214 | 1.0 | 3.0 | 0.00 | 0.00 | 0.00 | 70 | 1009.7 |
| 20260510120805 | 46 | 207 | 0.0 | 0.0 | 0.00 | 0.00 | 0.00 | 71 | 1009.7 |
| 20260510120305 | 45 | 207 | 0.0 | 0.0 | 0.00 | 0.00 | 0.00 | 71 | 1009.8 |
| 20260510114805 | 46 | 207 | 0.0 | 0.0 | 0.00 | 0.00 | 0.00 | 70 | 1009.8 |
| 20260510114305 | 46 | 207 | 0.0 | 0.0 | 0.00 | 0.00 | 0.00 | 69 | 1009.8 |
| 20260510113804 | 46 | 207 | 0.0 | 0.0 | 0.00 | 0.00 | 0.00 | 69 | 1009.8 |
| 20260510113304 | 46 | 207 | 0.0 | 0.0 | 0.00 | 0.00 | 0.00 | 69 | 1009.9 |
| 20260510112306 | 47 | 207 | 0.0 | 0.0 | 0.00 | 0.00 | 0.00 | 69 | 1009.9 |
| 20260510111805 | 47 | 207 | 0.0 | 0.0 | 0.00 | 0.00 | 0.00 | 69 | 1010.1 |
| 20260510111305 | 47 | 207 | 0.0 | 0.0 | 0.00 | 0.00 | 0.00 | 69 | 1010.1 |
| 20260510110306 | 47 | 207 | 0.0 | 0.0 | 0.00 | 0.00 | 0.00 | 69 | 1010.2 |
| 20260510105805 | 47 | 207 | 0.0 | 0.0 | 0.00 | 0.00 | 0.00 | 69 | 1010.3 |
| 20260510105306 | 47 | 207 | 0.0 | 0.0 | 0.00 | 0.00 | 0.00 | 69 | 1010.3 |
| 20260510104805 | 47 | 207 | 0.0 | 0.0 | 0.00 | 0.00 | 0.00 | 68 | 1010.2 |
| 20260510104305 | 47 | 207 | 0.0 | 0.0 | 0.00 | 0.00 | 0.00 | 68 | 1010.3 |
| 20260510103805 | 47 | 207 | 0.0 | 0.0 | 0.00 | 0.00 | 0.00 | 68 | 1010.4 |
| 20260510103304 | 47 | 207 | 0.0 | 0.0 | 0.00 | 0.00 | 0.00 | 68 | 1010.4 |
| 20260510102306 | 47 | 207 | 0.0 | 0.0 | 0.00 | 0.00 | 0.00 | 68 | 1010.5 |
| 20260510101804 | 47 | 207 | 0.0 | 0.0 | 0.00 | 0.00 | 0.00 | 68 | 1010.6 |
| 20260510101305 | 47 | 207 | 0.0 | 0.0 | 0.00 | 0.00 | 0.00 | 68 | 1010.5 |
| 20260510100805 | 47 | 207 | 0.0 | 0.0 | 0.00 | 0.00 | 0.00 | 68 | 1010.5 |
| 20260510100304 | 47 | 207 | 0.0 | 0.0 | 0.00 | 0.00 | 0.00 | 68 | 1010.6 |
| 20260510095804 | 47 | 207 | 0.0 | 0.0 | 0.00 | 0.00 | 0.00 | 67 | 1010.6 |
| 20260510095306 | 47 | 207 | 0.0 | 0.0 | 0.00 | 0.00 | 0.00 | 67 | 1010.7 |
| 20260510094804 | 47 | 207 | 0.0 | 1.0 | 0.00 | 0.00 | 0.00 | 67 | 1010.6 |
| 20260510093804 | 47 | 207 | 0.0 | 2.0 | 0.00 | 0.00 | 0.00 | 67 | 1010.7 |
| 20260510092306 | 47 | 207 | 0.0 | 2.0 | 0.00 | 0.00 | 0.00 | 66 | 1010.8 |
| 20260510091805 | 47 | 207 | 0.0 | 0.0 | 0.00 | 0.00 | 0.00 | 66 | 1010.8 |
| 20260510091305 | 47 | 207 | 1.0 | 3.0 | 0.00 | 0.00 | 0.00 | 66 | 1010.8 |
| 20260510090804 | 48 | 207 | 1.0 | 2.0 | 0.00 | 0.00 | 0.00 | 66 | 1010.9 |
| 20260510090305 | 48 | 207 | 0.0 | 2.0 | 0.00 | 0.00 | 0.00 | 66 | 1011.0 |
| 20260510085805 | 48 | 207 | 1.0 | 2.0 | 0.00 | 0.00 | 0.00 | 66 | 1011.0 |
| 20260510085306 | 48 | 207 | 0.0 | 3.0 | 0.00 | 0.00 | 0.00 | 66 | 1011.1 |
| 20260510084805 | 48 | 208 | 1.0 | 3.0 | 0.00 | 0.00 | 0.00 | 66 | 1011.2 |
| 20260510083805 | 48 | 208 | 1.0 | 3.0 | 0.00 | 0.00 | 0.00 | 65 | 1011.2 |
| 20260510083306 | 48 | 208 | 1.0 | 3.0 | 0.00 | 0.00 | 0.00 | 65 | 1011.2 |
| 20260510082805 | 48 | 208 | 1.0 | 3.0 | 0.00 | 0.00 | 0.00 | 65 | 1011.3 |
| 20260510082306 | 48 | 209 | 0.0 | 2.0 | 0.00 | 0.00 | 0.00 | 64 | 1011.2 |
| 20260510081805 | 48 | 209 | 0.0 | 2.0 | 0.00 | 0.00 | 0.00 | 64 | 1011.2 |
| 20260510081306 | 49 | 209 | 0.0 | 2.0 | 0.00 | 0.00 | 0.00 | 63 | 1011.3 |
| 20260510080305 | 49 | 209 | 1.0 | 2.0 | 0.00 | 0.00 | 0.00 | 63 | 1011.3 |
| 20260510075805 | 49 | 209 | 0.0 | 0.0 | 0.00 | 0.00 | 0.00 | 63 | 1011.4 |
| 20260510074805 | 49 | 209 | 0.0 | 2.0 | 0.00 | 0.00 | 0.00 | 62 | 1011.5 |
| 20260510074305 | 49 | 209 | 1.0 | 3.0 | 0.00 | 0.00 | 0.00 | 62 | 1011.5 |
| 20260510073805 | 49 | 209 | 1.0 | 3.0 | 0.00 | 0.00 | 0.00 | 61 | 1011.5 |
| 20260510073304 | 50 | 210 | 1.0 | 2.0 | 0.00 | 0.00 | 0.00 | 61 | 1011.5 |
| 20260510072805 | 50 | 219 | 1.0 | 3.0 | 0.00 | 0.00 | 0.00 | 60 | 1011.6 |
| 20260510072306 | 50 | 214 | 1.0 | 5.0 | 0.00 | 0.00 | 0.00 | 60 | 1011.6 |
| 20260510071806 | 50 | 204 | 2.0 | 7.0 | 0.00 | 0.00 | 0.00 | 60 | 1011.6 |
| 20260510071304 | 50 | 188 | 1.0 | 5.0 | 0.00 | 0.00 | 0.00 | 60 | 1011.6 |
| 20260510070304 | 51 | 189 | 1.0 | 3.0 | 0.00 | 0.00 | 0.00 | 59 | 1011.6 |
| 20260510065306 | 51 | 137 | 1.0 | 3.0 | 0.00 | 0.00 | 0.00 | 57 | 1011.6 |
| 20260510064804 | 51 | 191 | 1.0 | 3.0 | 0.00 | 0.00 | 0.00 | 57 | 1011.7 |
| 20260510064305 | 51 | 139 | 1.0 | 6.0 | 0.00 | 0.00 | 0.00 | 56 | 1011.6 |
| 20260510063805 | 52 | 127 | 1.0 | 2.0 | 0.00 | 0.00 | 0.00 | 56 | 1011.7 |
| 20260510062307 | 52 | 197 | 0.0 | 3.0 | 0.00 | 0.00 | 0.00 | 54 | 1011.9 |
| 20260510061806 | 53 | 210 | 1.0 | 3.0 | 0.00 | 0.00 | 0.00 | 54 | 1011.9 |
| 20260510060819 | 53 | 220 | 1.0 | 3.0 | 0.00 | 0.00 | 0.00 | 54 | 1011.9 |
| 20260510060306 | 52 | 182 | 2.0 | 8.0 | 0.00 | 0.00 | 0.00 | 54 | 1011.9 |
| 20260510055804 | 52 | 173 | 2.0 | 3.0 | 0.00 | 0.00 | 0.00 | 55 | 1011.9 |
| 20260510055306 | 52 | 188 | 1.0 | 3.0 | 0.00 | 0.00 | 0.00 | 55 | 1012.0 |
| 20260510054804 | 53 | 179 | 0.0 | 2.0 | 0.00 | 0.00 | 0.00 | 54 | 1012.0 |
| 20260510054305 | 53 | 178 | 0.0 | 1.0 | 0.00 | 0.00 | 0.00 | 53 | 1012.1 |
| 20260510053805 | 53 | 178 | 0.0 | 1.0 | 0.00 | 0.00 | 0.00 | 53 | 1012.1 |
| 20260510053304 | 53 | 178 | 0.0 | 1.0 | 0.00 | 0.00 | 0.00 | 53 | 1012.1 |
| 20260510052804 | 54 | 146 | 0.0 | 0.0 | 0.00 | 0.00 | 0.00 | 52 | 1012.2 |
| 20260510051304 | 54 | 146 | 0.0 | 0.0 | 0.00 | 0.00 | 0.00 | 51 | 1012.2 |
| 20260510050805 | 55 | 145 | 0.0 | 0.0 | 0.00 | 0.00 | 0.00 | 51 | 1012.2 |
| 20260510050305 | 55 | 144 | 0.0 | 1.0 | 0.00 | 0.00 | 0.00 | 50 | 1012.2 |
| 20260510045805 | 55 | 144 | 0.0 | 1.0 | 0.00 | 0.00 | 0.00 | 50 | 1012.2 |
| 20260510045306 | 55 | 141 | 1.0 | 3.0 | 0.00 | 0.00 | 0.00 | 50 | 1012.2 |
| 20260510044805 | 56 | 101 | 1.0 | 3.0 | 0.00 | 0.00 | 0.00 | 49 | 1012.2 |
| 20260510043806 | 56 | 98 | 0.0 | 1.0 | 0.00 | 0.00 | 0.00 | 48 | 1012.2 |
| 20260510043305 | 57 | 98 | 0.0 | 3.0 | 0.00 | 0.00 | 0.00 | 47 | 1012.2 |
| 20260510042306 | 57 | 98 | 0.0 | 1.0 | 0.00 | 0.00 | 0.00 | 47 | 1012.2 |
| 20260510041805 | 57 | 97 | 0.0 | 1.0 | 0.00 | 0.00 | 0.00 | 47 | 1012.1 |
| 20260510041305 | 58 | 97 | 0.0 | 0.0 | 0.00 | 0.00 | 0.00 | 46 | 1012.1 |
| 20260510040805 | 58 | 97 | 0.0 | 0.0 | 0.00 | 0.00 | 0.00 | 46 | 1012.0 |
| 20260510040305 | 58 | 98 | 0.0 | 1.0 | 0.00 | 0.00 | 0.00 | 46 | 1012.1 |
| 20260510035805 | 58 | 98 | 1.0 | 2.0 | 0.00 | 0.00 | 0.00 | 45 | 1012.0 |
| 20260510035306 | 59 | 99 | 0.0 | 1.0 | 0.00 | 0.00 | 0.00 | 45 | 1012.0 |
| 20260510034806 | 59 | 100 | 0.0 | 1.0 | 0.00 | 0.00 | 0.00 | 45 | 1012.0 |
| 20260510034304 | 59 | 100 | 0.0 | 0.0 | 0.00 | 0.00 | 0.00 | 44 | 1012.0 |
| 20260510033805 | 60 | 100 | 0.0 | 1.0 | 0.00 | 0.00 | 0.00 | 43 | 1012.0 |
| 20260510033304 | 60 | 100 | 0.0 | 1.0 | 0.00 | 0.00 | 0.00 | 43 | 1011.9 |
| 20260510032306 | 61 | 100 | 0.0 | 1.0 | 0.00 | 0.00 | 0.00 | 42 | 1011.9 |
| 20260510031804 | 61 | 96 | 0.0 | 3.0 | 0.00 | 0.00 | 0.00 | 41 | 1011.9 |
| 20260510031305 | 62 | 90 | 1.0 | 2.0 | 0.00 | 0.00 | 0.00 | 41 | 1011.8 |
| 20260510025805 | 63 | 90 | 0.0 | 1.0 | 0.00 | 0.00 | 0.00 | 39 | 1011.6 |
| 20260510025306 | 63 | 90 | 0.0 | 1.0 | 0.00 | 0.00 | 0.00 | 39 | 1011.6 |
| 20260510024304 | 64 | 90 | 1.0 | 5.0 | 0.00 | 0.00 | 0.00 | 38 | 1011.6 |
| 20260510023804 | 64 | 90 | 0.0 | 2.0 | 0.00 | 0.00 | 0.00 | 38 | 1011.6 |
| 20260510023306 | 64 | 90 | 0.0 | 1.0 | 0.00 | 0.00 | 0.00 | 37 | 1011.6 |
| 20260510022805 | 64 | 90 | 0.0 | 1.0 | 0.00 | 0.00 | 0.00 | 37 | 1011.6 |
| 20260510022306 | 65 | 89 | 0.0 | 2.0 | 0.00 | 0.00 | 0.00 | 37 | 1011.6 |
| 20260510021806 | 65 | 90 | 1.0 | 2.0 | 0.00 | 0.00 | 0.00 | 36 | 1011.6 |
| 20260510020304 | 66 | 91 | 2.0 | 3.0 | 0.00 | 0.00 | 0.00 | 35 | 1011.6 |
| 20260510015806 | 66 | 99 | 0.0 | 2.0 | 0.00 | 0.00 | 0.00 | 35 | 1011.7 |
| 20260510015306 | 66 | 98 | 1.0 | 3.0 | 0.00 | 0.00 | 0.00 | 35 | 1011.8 |
| 20260510014804 | 67 | 77 | 1.0 | 3.0 | 0.00 | 0.00 | 0.00 | 35 | 1011.8 |
| 20260510014305 | 67 | 101 | 1.0 | 3.0 | 0.00 | 0.00 | 0.00 | 34 | 1011.8 |
| 20260510013806 | 67 | 89 | 1.0 | 3.0 | 0.00 | 0.00 | 0.00 | 34 | 1011.7 |
| 20260510012804 | 67 | 150 | 1.0 | 3.0 | 0.00 | 0.00 | 0.00 | 34 | 1011.7 |
| 20260510011805 | 67 | 201 | 1.0 | 3.0 | 0.00 | 0.00 | 0.00 | 34 | 1011.7 |
| 20260510011305 | 67 | 204 | 1.0 | 5.0 | 0.00 | 0.00 | 0.00 | 34 | 1011.8 |
| 20260510010304 | 67 | 213 | 2.0 | 5.0 | 0.00 | 0.00 | 0.00 | 34 | 1011.8 |
| 20260510005805 | 67 | 93 | 2.0 | 3.0 | 0.00 | 0.00 | 0.00 | 35 | 1011.9 |
| 20260510005306 | 67 | 303 | 0.0 | 3.0 | 0.00 | 0.00 | 0.00 | 33 | 1011.8 |
| 20260510004804 | 68 | 303 | 2.0 | 3.0 | 0.00 | 0.00 | 0.00 | 33 | 1011.9 |
| 20260510003806 | 68 | 270 | 1.0 | 3.0 | 0.00 | 0.00 | 0.00 | 32 | 1012.0 |
| 20260510003305 | 69 | 269 | 1.0 | 3.0 | 0.00 | 0.00 | 0.00 | 31 | 1012.0 |
| 20260510002805 | 69 | 268 | 2.0 | 3.0 | 0.00 | 0.00 | 0.00 | 31 | 1012.0 |
| 20260510002307 | 69 | 268 | 2.0 | 3.0 | 0.00 | 0.00 | 0.00 | 30 | 1012.0 |
| 20260510001304 | 70 | 286 | 2.0 | 5.0 | 0.00 | 0.00 | 0.00 | 31 | 1011.9 |
| 20260510000804 | 69 | 286 | 2.0 | 6.0 | 0.00 | 0.00 | 0.00 | 31 | 1011.9 |
| 20260510000305 | 69 | 6 | 1.0 | 3.0 | 0.00 | 0.00 | 0.00 | 32 | 1011.9 |
| 20260509235306 | 69 | 350 | 0.0 | 3.0 | 0.00 | 0.00 | 0.00 | 32 | 1011.9 |
| 20260509234805 | 68 | 324 | 1.0 | 3.0 | 0.00 | 0.00 | 0.00 | 33 | 1011.9 |
| 20260509234306 | 68 | 310 | 1.0 | 3.0 | 0.00 | 0.00 | 0.00 | 33 | 1011.9 |
| 20260509233805 | 68 | 358 | 1.0 | 3.0 | 0.00 | 0.00 | 0.00 | 32 | 1011.9 |
| 20260509233305 | 68 | 356 | 1.0 | 3.0 | 0.00 | 0.00 | 0.00 | 32 | 1012.0 |
| 20260509232804 | 68 | 339 | 2.0 | 3.0 | 0.00 | 0.00 | 0.00 | 31 | 1012.0 |
| 20260509232306 | 69 | 297 | 3.0 | 6.0 | 0.00 | 0.00 | 0.00 | 31 | 1012.0 |
| 20260509231804 | 69 | 0 | 2.0 | 3.0 | 0.00 | 0.00 | 0.00 | 31 | 1012.0 |
| 20260509230305 | 69 | 264 | 2.0 | 5.0 | 0.00 | 0.00 | 0.00 | 30 | 1012.1 |
| 20260509225306 | 68 | 274 | 3.0 | 8.0 | 0.00 | 0.00 | 0.00 | 32 | 1012.2 |
| 20260509224805 | 68 | 296 | 2.0 | 7.0 | 0.00 | 0.00 | 0.00 | 34 | 1012.2 |
| 20260509224305 | 67 | 50 | 1.0 | 3.0 | 0.00 | 0.00 | 0.00 | 33 | 1012.2 |
| 20260509223804 | 68 | 42 | 1.0 | 3.0 | 0.00 | 0.00 | 0.00 | 32 | 1012.3 |
| 20260509223306 | 67 | 47 | 2.0 | 3.0 | 0.00 | 0.00 | 0.00 | 34 | 1012.3 |
| 20260509222804 | 66 | 11 | 0.0 | 2.0 | 0.00 | 0.00 | 0.00 | 34 | 1012.3 |
| 20260509222307 | 65 | 19 | 1.0 | 3.0 | 0.00 | 0.00 | 0.00 | 36 | 1012.4 |
| 20260509221804 | 65 | 19 | 2.0 | 3.0 | 0.00 | 0.00 | 0.00 | 36 | 1012.4 |
| 20260509220805 | 65 | 15 | 2.0 | 3.0 | 0.00 | 0.00 | 0.00 | 35 | 1012.5 |
| 20260509220304 | 65 | 339 | 1.0 | 3.0 | 0.00 | 0.00 | 0.00 | 36 | 1012.5 |
| 20260509215805 | 65 | 342 | 1.0 | 3.0 | 0.00 | 0.00 | 0.00 | 36 | 1012.5 |
| 20260509214305 | 64 | 274 | 2.0 | 3.0 | 0.00 | 0.00 | 0.00 | 36 | 1012.6 |
| 20260509213805 | 64 | 284 | 1.0 | 3.0 | 0.00 | 0.00 | 0.00 | 37 | 1012.6 |
| 20260509213305 | 64 | 284 | 0.0 | 3.0 | 0.00 | 0.00 | 0.00 | 38 | 1012.5 |
| 20260509212804 | 64 | 284 | 2.0 | 3.0 | 0.00 | 0.00 | 0.00 | 35 | 1012.6 |
| 20260509212306 | 65 | 270 | 3.0 | 6.0 | 0.00 | 0.00 | 0.00 | 35 | 1012.7 |
| 20260509211305 | 65 | 297 | 2.0 | 3.0 | 0.00 | 0.00 | 0.00 | 35 | 1012.6 |
| 20260509210805 | 65 | 293 | 1.0 | 3.0 | 0.00 | 0.00 | 0.00 | 37 | 1012.5 |
| 20260509210304 | 65 | 277 | 2.0 | 3.0 | 0.00 | 0.00 | 0.00 | 37 | 1012.5 |
| 20260509205805 | 65 | 252 | 2.0 | 5.0 | 0.00 | 0.00 | 0.00 | 37 | 1012.5 |
| 20260509205307 | 65 | 333 | 1.0 | 3.0 | 0.00 | 0.00 | 0.00 | 35 | 1012.5 |
| 20260509204805 | 65 | 312 | 1.0 | 3.0 | 0.00 | 0.00 | 0.00 | 37 | 1012.6 |
| 20260509203805 | 66 | 212 | 4.0 | 7.0 | 0.00 | 0.00 | 0.00 | 35 | 1012.6 |
| 20260509202804 | 65 | 253 | 1.0 | 3.0 | 0.00 | 0.00 | 0.00 | 36 | 1012.6 |
| 20260509202306 | 65 | 229 | 2.0 | 3.0 | 0.00 | 0.00 | 0.00 | 35 | 1012.6 |
| 20260509201804 | 65 | 224 | 1.0 | 3.0 | 0.00 | 0.00 | 0.00 | 36 | 1012.7 |
| 20260509200805 | 65 | 231 | 1.0 | 3.0 | 0.00 | 0.00 | 0.00 | 37 | 1012.7 |
| 20260509200304 | 65 | 316 | 2.0 | 3.0 | 0.00 | 0.00 | 0.00 | 36 | 1012.7 |
| 20260509195805 | 65 | 318 | 1.0 | 3.0 | 0.00 | 0.00 | 0.00 | 37 | 1012.8 |
| 20260509195306 | 65 | 354 | 0.0 | 2.0 | 0.00 | 0.00 | 0.00 | 37 | 1012.8 |
| 20260509194804 | 65 | 354 | 0.0 | 3.0 | 0.00 | 0.00 | 0.00 | 38 | 1012.8 |
| 20260509193305 | 65 | 358 | 4.0 | 8.0 | 0.00 | 0.00 | 0.00 | 38 | 1012.9 |
| 20260509192804 | 65 | 352 | 2.0 | 5.0 | 0.00 | 0.00 | 0.00 | 41 | 1012.8 |